This demonstration page uses our WeatherBlox Daily Observations layout. Learn more.

Left ArrowRight Arrow

39.92423, -83.80882

Hourly Observations for March 17, 2019

Temp ( °F °C ) Dew Point ( °F °C ) Humidity (%) Winds ( mph kmh ) Pressure ( in mb ) Visibility ( mi km ) Precip ( " mm )
12:56 am 00:56 Clear 29 -1.7 25 -3.9 85 85 W 5 7 30.33 1027 10 16.0934 0 0
1:56 am 01:56 Clear 28 -2.2 23 -5 81 81 NNW 5 7 30.32 1027 10 16.0934 0 0
2:56 am 02:56 Clear 27 -2.8 24 -4.4 89 89 WNW 3 6 30.32 1027 10 16.0934 0 0
3:56 am 03:56 Clear 26 -3.3 24 -4.4 92 92 Calm 30.31 1026 10 16.0934 0 0
4:56 am 04:56 Clear 24 -4.4 23 -5 96 96 Calm 30.29 1026 10 16.0934 0 0
5:56 am 05:56 Clear 24 -4.4 23 -5 96 96 SSE 3 6 30.3 1026 10 16.0934 0 0
6:56 am 06:56 Clear 21 -6.1 20 -6.7 96 96 SE 5 7 30.32 1027 10 16.0934 0 0
7:56 am 07:56 Sunny 22 -5.6 22 -5.6 100 100 SSE 3 6 30.32 1027 10 16.0934 0 0
8:56 am 08:56 Mostly Cloudy 29 -1.7 24 -4.4 82 82 SSE 6 9 30.32 1027 10 16.0934 0 0
9:56 am 09:56 Cloudy 32 0 24 -4.4 73 73 SSE 8 13 30.32 1027 10 16.0934 0 0
10:56 am 10:56 Cloudy 34 1.1 22 -5.6 61 61 SSE 9 15 30.32 1027 10 16.0934 0 0
11:56 am 11:56 Mostly Sunny 36 2.2 25 -3.9 64 64 S 8 13 30.3 1026 10 16.0934 0 0
12:56 pm 12:56 Cloudy 38 3.3 27 -2.8 65 65 SSW 6 9 30.29 1026 10 16.0934 0 0
1:40 pm 13:40 Cloudy with Light Snow 36 2 30 -1 81 81 SW 12 19 30.3 1026 2 3.21868 0 0.0254
1:52 pm 13:52 Cloudy with Light Snow 34 1 32 0 93 93 SW 8 13 30.3 1026 1.75 2.816345 0 0.0254
1:56 pm 13:56 Cloudy with Light Snow 34 1.1 32 0 92 92 SW 9 15 30.29 1026 1.5 2.41401 0 0.0254
2:07 pm 14:07 Cloudy with Light Snow 34 1 34 1 100 100 SW 7 11 30.3 1026 1 1.60934 0 0.0254
2:30 pm 14:30 Cloudy with Light Snow 34 1 34 1 100 100 SW 8 13 30.28 1025 1.75 2.816345 0.01 0.254
2:44 pm 14:44 Cloudy with Light Snow 34 1 34 1 100 100 SSW 8 13 30.28 1025 1.75 2.816345 0.01 0.254
2:53 pm 14:53 Cloudy with Light Snow 34 1 34 1 100 100 SSW 6 9 30.27 1025 2 3.21868 0.02 0.508
2:56 pm 14:56 Cloudy with Light Snow 34 1.1 33 0.6 97 97 SSW 6 9 30.26 1025 1.75 2.816345 0.02 0.508
2:59 pm 14:59 Cloudy with Light Snow 34 1 34 1 100 100 SSW 6 9 30.27 1025 2 3.21868 0 0.0254
3:06 pm 15:06 Cloudy with Light Snow 34 1 34 1 100 100 S 6 9 30.27 1025 1.75 2.816345 0 0.0254
3:27 pm 15:27 Cloudy with Light Snow 34 1 34 1 100 100 Calm 30.26 1025 1.5 2.41401 0 0.0254
3:32 pm 15:32 Cloudy with Light Snow 34 1 34 1 100 100 SSE 3 6 30.25 1024 3 4.82802 0 0.0254
3:56 pm 15:56 Cloudy with Light Rain 35 1.7 33 0.6 93 93 E 6 9 30.23 1024 7 11.26538 0 0.0254
4:56 pm 16:56 Cloudy 36 2.2 34 1.1 93 93 ENE 7 11 30.22 1023 10 16.0934 0 0.0254
5:18 pm 17:18 Cloudy 36 2 34 1 93 93 E 3 6 30.23 1024 10 16.0934 0 0
5:43 pm 17:43 Cloudy 37 3 34 1 87 87 E 5 7 30.21 1023 10 16.0934 0 0
5:53 pm 17:53 Cloudy 37 3 34 1 87 87 ENE 3 6 30.22 1023 10 16.0934 0 0
5:56 pm 17:56 Cloudy 37 2.8 33 0.6 86 86 VRB 5 7 30.22 1023 10 16.0934 0 0
6:56 pm 18:56 Cloudy 36 2.2 34 1.1 93 93 N 7 11 30.23 1024 10 16.0934 0 0.0254
7:18 pm 19:18 Cloudy with Light Snow 34 1 34 1 100 100 N 8 13 30.25 1024 4 6.43736 0 0.0254
7:27 pm 19:27 Cloudy with Light Rain 34 1 34 1 100 100 N 7 11 30.25 1024 6 9.65604 0 0.0254
7:34 pm 19:34 Cloudy with Light Snow 34 1 34 1 100 100 N 6 9 30.26 1025 1.75 2.816345 0.01 0.254
7:37 pm 19:37 Cloudy with Light Snow 34 1 34 1 100 100 N 5 7 30.26 1025 1 1.60934 0.02 0.508
7:45 pm 19:45 Cloudy with Light Snow 34 1 34 1 100 100 Calm 30.26 1025 0.75 1.207005 0.02 0.508
7:48 pm 19:48 Cloudy with Light Snow 34 1 34 1 100 100 Calm 30.26 1025 1 1.60934 0.02 0.508
7:52 pm 19:52 Cloudy with Light Snow 34 1 34 1 100 100 Calm 30.26 1025 2 3.21868 0.02 0.508
7:56 pm 19:56 Cloudy with Light Snow 33 0.6 33 0.6 100 100 Calm 30.25 1024 2.5 4.02335 0.02 0.508
8:09 pm 20:09 Cloudy with Light Snow 34 1 34 1 100 100 Calm 30.26 1025 3 4.82802 0.01 0.254
8:56 pm 20:56 Cloudy with Mist and Fog 33 0.6 33 0.6 100 100 NNW 5 7 30.26 1025 6 9.65604 0.01 0.254
9:36 pm 21:36 Cloudy 34 1 34 1 100 100 NW 7 11 30.28 1025 10 16.0934 0 0.0254
9:49 pm 21:49 Partly Cloudy 34 1 34 1 100 100 NNW 7 11 30.27 1025 10 16.0934 0 0.0254
9:56 pm 21:56 Partly Cloudy 33 0.6 33 0.6 100 100 NW 7 11 30.27 1025 9 14.48406 0 0.0254
10:06 pm 22:06 Partly Cloudy 34 1 32 0 93 93 WNW 6 9 30.28 1025 8 12.87472 0 0
10:16 pm 22:16 Mostly Cloudy 34 1 34 1 100 100 NW 7 11 30.28 1025 8 12.87472 0 0
10:56 pm 22:56 Cloudy 33 0.6 31 -0.6 92 92 NW 8 13 30.28 1025 10 16.0934 0 0
11:27 pm 23:27 Mostly Cloudy 34 1 30 -1 87 87 NW 10 17 30.3 1026 10 16.0934 0 0
11:35 pm 23:35 Mostly Cloudy 34 1 30 -1 87 87 NNW 8 13 30.3 1026 10 16.0934 0 0
11:42 pm 23:42 Cloudy 34 1 30 -1 87 87 NW 10 17 30.3 1026 10 16.0934 0 0
11:56 pm 23:56 Cloudy 33 0.6 31 -0.6 92 92 NW 9 15 30.29 1026 10 16.0934 0 0

Powered by AerisWeather